Flag for Australia Weather past 2 weeks in Currie, Tasmania, Australia

Now
57 °F

Cool.


Feels Like: 55 °F
Forecast: 55 / 60 °F
Wind: 8 mph from Southwest

Location: King Island Airport

Current Time: Oct 26, 2014 at 11:39:35 AM

Latest Report: Oct 26, 2014 at 10:00 AM


Visibility: N/A

Pressure: 29.95 "Hg

Humidity: 73%

Dew point: 48 °F

Location of CurrieLocation

Historic Weather in Currie — Graph

°F

Currie temperature yesterday

Maximum temperature yesterday: 58 °F (at 2:00 PM)
Minimum temperature yesterday: 53 °F (at 11:00 PM)
Average temperature yesterday: 55 °F

Past Weeks' High & Low Weather Summary

 TemperatureHumidityPressure
High72 °F (Oct 22, 3:00 PM)100% (Oct 24, 10:00 AM)30.53 "Hg (Oct 24, 10:00 AM)
Low39 °F (Oct 20, 5:00 AM)47% (Oct 15, 1:00 PM)29.71 "Hg (Oct 12, 6:00 PM)
Average54 °F78%30.12 "Hg
* Reported Oct 11 10:00 AM — Oct 26 10:00 AM, Currie, Weather by CustomWeather, © 2014

Note: Actual official high and low records may vary slightly from our data, if they occured in-between our weather recording intervals... More about our weather records

Advertising

Currie weather history for previous 24 hours

 ConditionsComfort  
Time TempWeatherWind HumidityBarometerVisibility
10:00 AM
Oct 26
57 °FCool.8 mph73%29.95 "HgN/A
9:00 AM56 °FScattered clouds.9 mph75%29.96 "HgN/A
8:00 AM54 °FCool.8 mph80%29.96 "HgN/A
7:00 AM52 °FCool.7 mph86%29.95 "HgN/A
6:00 AM52 °FPassing clouds.7 mph85%29.93 "HgN/A
5:00 AM51 °FCool.6 mph87%29.94 "HgN/A
4:00 AM52 °FCool.6 mph87%29.94 "HgN/A
3:00 AM52 °FOvercast.2 mph87%29.96 "HgN/A
2:00 AM52 °FCool.6 mph86%29.98 "HgN/A
1:00 AM53 °FCool.1 mph84%30.00 "HgN/A
12:00 AM53 °FOvercast.7 mph86%30.02 "HgN/A
11:00 PM
Oct 25
53 °FCool.7 mph86%30.01 "HgN/A
10:00 PM53 °FCool.10 mph86%30.03 "HgN/A
9:00 PM53 °FOvercast.10 mph87%30.04 "HgN/A
8:00 PM53 °FCool.10 mph86%30.02 "HgN/A
7:00 PM54 °FCool.12 mph83%30.01 "HgN/A
6:00 PM56 °FPartly sunny.15 mph78%30.02 "HgN/A
5:00 PM58 °FCool.15 mph73%30.00 "HgN/A
4:00 PM58 °FCool.12 mph71%30.01 "HgN/A
3:00 PM58 °FOvercast.15 mph73%30.03 "HgN/A
2:00 PM58 °FCool.12 mph74%30.04 "HgN/A
1:00 PM56 °FCool.12 mph80%30.06 "HgN/A
12:00 PM56 °FOvercast.13 mph80%30.06 "HgN/A
11:00 AM56 °FCool.8 mph81%30.07 "HgN/A
Weather by CustomWeather, © 2014

See weather overviewHow to use our weather pages